TimeMST,TemperatureF,Dew PointF,Humidity,Sea Level PressureIn,VisibilityMPH,Wind Direction,Wind SpeedMPH,Gust SpeedMPH,PrecipitationIn,Events,Conditions,WindDirDegrees,DateUTC
12:55 AM,59.0,19.4,22,30.21,10.0,SW,6.9,-,N/A,,Clear,220,2012-11-06 07:55:00
1:55 AM,59.0,19.4,22,30.06,10.0,SW,4.6,-,N/A,,Clear,230,2012-11-06 08:55:00
2:55 AM,57.2,19.4,23,30.06,10.0,SW,6.9,-,N/A,,Clear,230,2012-11-06 09:55:00
3:55 AM,57.2,19.4,23,30.06,10.0,SW,5.8,-,N/A,,Clear,230,2012-11-06 10:55:00
4:55 AM,55.4,19.4,25,30.08,10.0,SSW,4.6,-,N/A,,Clear,210,2012-11-06 11:55:00
5:55 AM,55.4,19.4,25,30.23,10.0,SW,3.5,-,N/A,,Clear,220,2012-11-06 12:55:00
6:55 AM,55.4,19.4,25,30.13,10.0,Calm,Calm,-,N/A,,Clear,0,2012-11-06 13:55:00
7:55 AM,60.8,19.4,20,30.15,10.0,Calm,Calm,-,N/A,,Clear,0,2012-11-06 14:55:00
8:55 AM,68.0,21.2,17,30.14,10.0,Calm,Calm,-,N/A,,Clear,0,2012-11-06 15:55:00
9:55 AM,73.4,23.0,15,30.13,10.0,Calm,Calm,-,N/A,,Clear,0,2012-11-06 16:55:00
10:55 AM,75.2,19.4,12,30.11,10.0,East,4.6,-,N/A,,Clear,100,2012-11-06 17:55:00
11:55 AM,80.6,23.0,12,30.08,10.0,East,3.5,-,N/A,,Clear,100,2012-11-06 18:55:00
12:55 PM,80.6,23.0,12,30.05,10.0,Calm,Calm,-,N/A,,Clear,0,2012-11-06 19:55:00
1:55 PM,80.6,23.0,12,30.02,10.0,WNW,3.5,-,N/A,,Clear,290,2012-11-06 20:55:00
2:55 PM,80.6,21.2,11,30.01,10.0,SSE,3.5,-,N/A,,Clear,150,2012-11-06 21:55:00
3:55 PM,82.4,23.0,11,30.00,10.0,Calm,Calm,-,N/A,,Clear,0,2012-11-06 22:55:00
4:55 PM,78.8,21.2,12,30.02,10.0,North,9.2,-,N/A,,Clear,360,2012-11-06 23:55:00
5:55 PM,71.6,21.2,15,30.05,10.0,West,6.9,-,N/A,,Clear,260,2012-11-07 00:55:00
7:55 PM,66.2,21.2,18,30.07,10.0,SW,11.5,-,N/A,,Clear,230,2012-11-07 02:55:00
8:55 PM,64.4,21.2,19,30.06,10.0,SW,10.4,-,N/A,,Clear,230,2012-11-07 03:55:00
9:55 PM,60.8,21.2,22,30.07,10.0,SSW,4.6,-,N/A,,Clear,200,2012-11-07 04:55:00
10:55 PM,60.8,21.2,22,30.06,10.0,SSW,3.5,-,N/A,,Clear,200,2012-11-07 05:55:00
11:55 PM,60.8,21.2,22,30.05,10.0,Calm,Calm,-,N/A,,Clear,0,2012-11-07 06:55:00